Hourly Data Report for July 03, 2021

TORONTO CITY CENTRE
ONTARIO
Current Station Operator: NAVCAN

43°37'39.000" N
79°23'46.000" W
76.80 m
6158359
71265
YTZ

Download Data

Hourly Data (July 2021)
Hourly Data Report for July 3, 2021
TIME
LST
Temp Definition
°C
Dew Point Definition
°C
Rel Hum Definition
%
Precip. Amount Definition
mm

Wind Dir Definition
10's deg

Wind Spd Definition
km/h
Visibility Definition
km
Stn Press Definition
kPa
Hmdx Definition


Wind Chill Definition


Weather Definition


00:00 18.3 13.9 75 0.0 33 9 16.1 100.24     LegendNANA
01:00 18.2 12.9 71 0.0 35 11 16.1 100.22     LegendNANA
02:00 17.7 13.1 74 0.0 33 15 16.1 100.18     LegendNANA
03:00 17.3 13.3 77 0.0 34 11 16.1 100.21     LegendNANA
04:00 16.3 13.3 82 0.0   0 16.1 100.22     LegendNANA
05:00 16.7 13.5 81 0.0 33 5 16.1 100.25     LegendNANA
06:00 17.0 14.2 83 0.0   0 16.1 100.23     LegendNANA
07:00 18.8 14.9 78 0.0 31 5 16.1 100.28     LegendNANA
08:00 19.6 15.4 76 0.0 14 5 16.1 100.32     LegendNANA
09:00 19.6 16.0 79 0.0 20 9 16.1 100.27     LegendNANA
10:00 19.1 15.4 79 0.0 18 15 16.1 100.27     LegendNANA
11:00 18.6 15.4 82 0.0 18 11 16.1 100.23     LegendNANA
12:00 19.0 16.1 83 0.0 19 15 16.1 100.17     LegendNANA
13:00 20.6 15.9 74 0.0 19 13 16.1 100.10 25   LegendNANA
14:00 20.8 16.5 76 0.0 18 9 16.1 100.07 26   LegendNANA
15:00 21.0 15.7 72 0.0 17 9 16.1 100.02 25   LegendNANA
16:00 21.7 14.8 65 0.0 17 13 16.1 99.96 26   LegendNANA
17:00 22.3 16.3 69 0.0 18 9 16.1 99.94 27   LegendNANA
18:00 21.5 16.2 71 0.0 23 8 16.1 99.96 26   LegendNANA
19:00 20.0 15.9 77 0.0 LegendMM 4 16.1 99.97 25   LegendNANA
20:00 20.1 14.1 68 0.0 24 9 16.1 100.00     LegendNANA
21:00 19.5 14.6 73 0.0 LegendMM 4 16.1 100.07     LegendNANA
22:00 18.5 15.6 83 0.0 22 18 16.1 100.06     LegendNANA
23:00 18.2 16.0 87 0.0 22 9 16.1 100.08     LegendNANA

Notes on Data Quality.

Legend

  • E = Estimated
  • M = Missing
  • NA = Not Available*
  • [empty] = Indicates an unobserved value
Date modified: